Location: Unspecified
(47.6578°N, 23.5640°E)
Time: 06:40:41
(UTC+02:00)

ISS - Pass Details

Date: 10 December 2017
Orbit: 403 x 407 km, 51.6° (Epoch: 12 December)

Event Time Altitude Azimuth Distance (km) Brightness Sun altitude
Rises 18:27:40 0° 292° (WNW) 2,332 0.9 -18.2°
Reaches altitude 10° 18:29:46 10° 296° (WNW) 1,469 -0.3 -18.6°
Enters shadow 18:32:59 63° 11° (N) 457 -3.8 -19.1°
